This is the latest recevied weather packets stored in our database for station/object WX2NJ-13. If no packets are shown the sender has not sent any weather packets the latest 10 day(s).
| Time | Temp. | Humidity | Pressure | Rain* | Wind** | Luminosity | Snow |
|---|---|---|---|---|---|---|---|
| 1777480730 | 15° C | 67% | 1015.9 hPa | 0 mm | 1.79 m/s, 158° | - | - |
| 1777480431 | 14.44° C | 68% | 1016 hPa | 0 mm | 1.34 m/s, 177° | - | - |
| 1777480133 | 14.44° C | 67% | 1016.1 hPa | 0 mm | 0.89 m/s, 148° | - | - |
| 1777479831 | 14.44° C | 67% | 1016.3 hPa | 0 mm | 1.79 m/s, 97° | - | - |
| 1777479533 | 13.89° C | 68% | 1016.4 hPa | 0 mm | 1.34 m/s, 142° | - | - |
| 1777479234 | 13.89° C | 68% | 1016.7 hPa | 0 mm | 2.24 m/s, 150° | - | - |
| 1777478933 | 13.89° C | 68% | 1016.6 hPa | 0 mm | 0.89 m/s, 180° | - | - |
| 1777478634 | 13.89° C | 67% | 1016.5 hPa | 0 mm | 1.79 m/s, 117° | - | - |
| 1777478336 | 13.89° C | 66% | 1016.4 hPa | 0 mm | 1.34 m/s, 138° | - | - |
| 1777478034 | 13.89° C | 66% | 1016.4 hPa | 0 mm | 2.24 m/s, 155° | - | - |
| 1777477736 | 13.89° C | 66% | 1016.4 hPa | 0 mm | 0.89 m/s, 131° | - | - |
| 1777477437 | 14.44° C | 65% | 1016.4 hPa | 0 mm | 0 m/s | - | - |
| 1777477135 | 14.44° C | 65% | 1016.5 hPa | 0 mm | 1.34 m/s, 191° | - | - |
| 1777476837 | 14.44° C | 65% | 1016.5 hPa | 0 mm | 1.34 m/s, 97° | - | - |
| 1777476538 | 14.44° C | 63% | 1016.6 hPa | 0 mm | 0.89 m/s, 136° | - | - |
| 1777476237 | 14.44° C | 63% | 1016.6 hPa | 0 mm | 0.45 m/s, 188° | - | - |
| 1777475938 | 14.44° C | 63% | 1016.6 hPa | 0 mm | 0 m/s | - | - |
| 1777475640 | 14.44° C | 63% | 1016.6 hPa | 0 mm | 0.45 m/s, 65° | - | - |
| 1777475338 | 14.44° C | 64% | 1016.6 hPa | 0 mm | 0 m/s | - | - |
| 1777475040 | 14.44° C | 64% | 1016.6 hPa | 0 mm | 0 m/s | - | - |
| 1777474741 | 14.44° C | 63% | 1016.6 hPa | 0 mm | 0 m/s | - | - |
| 1777474440 | 14.44° C | 63% | 1016.7 hPa | 0 mm | 1.34 m/s, 32° | - | - |
| 1777474141 | 14.44° C | 63% | 1016.5 hPa | 0 mm | 0 m/s | - | - |
| 1777473842 | 14.44° C | 63% | 1016.6 hPa | 0 mm | 0 m/s | - | - |
| 1777473541 | 14.44° C | 62% | 1016.6 hPa | 0 mm | 0 m/s | - | - |
* Rain latest hour (hover to see other rain measurements)
** Current wind speed in m/s (hover to see current wind gust speed)